Location: Arthez
(43.0833°N, 0.2500°W)
Time: 06:24:56
(UTC+00:00)

Cosmos 304 Rocket - Pass Details

Date: 04 June 2022
Orbit: 679 x 686 km, 74.0° (Epoch: 03 July)

Event Time Altitude Azimuth Distance (km) Brightness Sun altitude
Exits shadow 00:14:47 27° 267° (W) 1,298 5.1 -24.4°
Maximum altitude 00:16:09 32° 298° (WNW) 1,170 5.1 -24.4°
Drops below altitude 10° 00:20:29 10° 2° (N) 2,143 7.4 -24.3°
Sets 00:23:01 0° 12° (NNE) 3,063 8.5 -24.3°
